Location: Dana
(41.8364°N, 106.7042°W)
Time: 14:14:44
(UTC+00:00)

SR - Pass Details

Date: 18 May 2026
Orbit: 567 x 853 km, 66.7° (Epoch: 7 June)

Event Time Altitude Azimuth Distance (km) Brightness Sun altitude
Rises 13:28:48 0° 212° (SSW) 2,957 ? 17.6°
Reaches altitude 10° 13:31:00 10° 214° (SW) 2,092 ? 18.0°
Maximum altitude 13:35:46 78° 301° (WNW) 733 ? 18.9°
Drops below altitude 10° 13:41:01 10° 28° (NNE) 2,297 ? 19.8°
Sets 13:43:32 0° 30° (NNE) 3,272 ? 20.3°
